| time (UTC) | temp F | wind direction | speed MPH | gust MPH | rain 1hr in | rain 24hr in | rain mn in | humidity % | barometer mb |
| 20260902104910 | 75 | 61 | 1.0 | 5.0 | 0.00 | 0.24 | 0.24 | 62 | 1022.4 |
| 20260902103410 | 75 | 86 | 0.0 | 5.0 | 0.00 | 0.24 | 0.24 | 66 | 1022.5 |
| 20260902101910 | 73 | 61 | 1.0 | 3.0 | 0.00 | 0.24 | 0.24 | 66 | 1022.8 |
| 20260902100409 | 72 | 52 | 3.0 | 5.0 | 0.00 | 0.24 | 0.24 | 71 | 1022.8 |
| 20260902094910 | 71 | 32 | 0.0 | 4.0 | 0.00 | 0.24 | 0.24 | 75 | 1022.9 |
| 20260902093410 | 70 | 311 | 1.0 | 3.0 | 0.00 | 0.24 | 0.24 | 75 | 1023.0 |
| 20260902091910 | 69 | 41 | 0.0 | 3.0 | 0.00 | 0.24 | 0.24 | 79 | 1023.0 |
| 20260902090410 | 69 | 310 | 1.0 | 4.0 | 0.01 | 0.24 | 0.24 | 81 | 1023.0 |
| 20260902084910 | 68 | 42 | 0.0 | 2.0 | 0.01 | 0.24 | 0.24 | 83 | 1023.2 |
| 20260902081910 | 66 | 296 | 2.0 | 5.0 | 0.01 | 0.24 | 0.24 | 87 | 1023.1 |
| 20260902080410 | 65 | 292 | 2.0 | 4.0 | 0.00 | 0.23 | 0.23 | 88 | 1023.2 |
| 20260902074911 | 65 | 300 | 2.0 | 4.0 | 0.00 | 0.23 | 0.23 | 89 | 1023.2 |
| 20260902073410 | 64 | 295 | 0.0 | 3.0 | 0.00 | 0.23 | 0.23 | 90 | 1023.0 |
| 20260902071911 | 63 | 302 | 0.0 | 3.0 | 0.00 | 0.23 | 0.23 | 93 | 1023.0 |
| 20260902070410 | 62 | 302 | 3.0 | 5.0 | 0.00 | 0.23 | 0.23 | 93 | 1023.0 |
| 20260902064910 | 62 | 281 | 1.0 | 2.0 | 0.00 | 0.23 | 0.23 | 94 | 1022.8 |
| 20260902063410 | 62 | 282 | 2.0 | 3.0 | 0.00 | 0.23 | 0.23 | 94 | 1022.8 |
| 20260902061910 | 62 | 269 | 2.0 | 3.0 | 0.00 | 0.23 | 0.23 | 94 | 1022.7 |
| 20260902060410 | 61 | 237 | 1.0 | 4.0 | 0.00 | 0.23 | 0.23 | 95 | 1022.6 |
| 20260902054912 | 61 | 266 | 2.0 | 6.0 | 0.00 | 0.23 | 0.23 | 95 | 1022.7 |
| 20260902053412 | 60 | 240 | 2.0 | 7.0 | 0.00 | 0.23 | 0.23 | 95 | 1022.6 |
| 20260902051912 | 60 | 254 | 2.0 | 3.0 | 0.00 | 0.23 | 0.23 | 96 | 1022.5 |
| 20260902050412 | 60 | 253 | 0.0 | 4.0 | 0.00 | 0.23 | 0.23 | 95 | 1022.3 |
| 20260902044912 | 60 | 225 | 1.0 | 2.0 | 0.00 | 0.23 | 0.23 | 95 | 1022.3 |
| 20260902043411 | 60 | 249 | 1.0 | 4.0 | 0.00 | 0.23 | 0.23 | 95 | 1022.3 |
| 20260902041911 | 60 | 305 | 2.0 | 4.0 | 0.00 | 0.23 | 0.23 | 95 | 1022.4 |
| 20260902040411 | 60 | 261 | 0.0 | 0.0 | 0.00 | 0.23 | 0.23 | 95 | 1022.0 |
| 20260902034912 | 60 | 261 | 0.0 | 1.0 | 0.00 | 0.23 | 0.23 | 94 | 1022.1 |
| 20260902031912 | 60 | 243 | 2.0 | 4.0 | 0.01 | 0.23 | 0.23 | 94 | 1022.3 |
| 20260902030412 | 60 | 244 | 1.0 | 3.0 | 0.10 | 0.23 | 0.23 | 94 | 1022.3 |
| 20260902024912 | 60 | 216 | 1.0 | 4.0 | 0.23 | 0.23 | 0.23 | 93 | 1022.2 |
| 20260902023411 | 60 | 285 | 2.0 | 4.0 | 0.23 | 0.23 | 0.23 | 92 | 1022.1 |
| 20260902021911 | 61 | 143 | 0.0 | 1.0 | 0.22 | 0.22 | 0.22 | 90 | 1022.0 |
| 20260902020411 | 63 | 144 | 0.0 | 4.0 | 0.13 | 0.13 | 0.13 | 86 | 1022.0 |
| 20260902014911 | 64 | 292 | 4.0 | 8.0 | 0.00 | 0.00 | 0.00 | 81 | 1022.9 |
| 20260902013411 | 63 | 236 | 2.0 | 4.0 | 0.00 | 0.00 | 0.00 | 80 | 1022.6 |
| 20260902011911 | 64 | 255 | 4.0 | 4.0 | 0.00 | 0.00 | 0.00 | 78 | 1022.6 |
| 20260902010411 | 64 | 219 | 2.0 | 4.0 | 0.00 | 0.00 | 0.00 | 78 | 1022.7 |
| 20260902004911 | 64 | 230 | 0.0 | 3.0 | 0.00 | 0.00 | 0.00 | 79 | 1022.8 |
| 20260902003411 | 63 | 270 | 4.0 | 9.0 | 0.00 | 0.00 | 0.00 | 79 | 1022.9 |
| 20260901224911 | 61 | 282 | 0.0 | 3.0 | 0.00 | 0.00 | 0.00 | 77 | 1021.7 |
| 20260901181910 | 71 | 143 | 1.0 | 3.0 | 0.00 | 0.01 | 0.01 | 60 | 1020.3 |
| 20260901180410 | 73 | 157 | 2.0 | 5.0 | 0.00 | 0.01 | 0.01 | 57 | 1020.2 |
| 20260901174911 | 73 | 159 | 3.0 | 4.0 | 0.00 | 0.01 | 0.01 | 56 | 1020.0 |
| 20260901173411 | 74 | 163 | 2.0 | 4.0 | 0.00 | 0.01 | 0.01 | 56 | 1019.9 |
| 20260901171911 | 75 | 181 | 1.0 | 5.0 | 0.00 | 0.01 | 0.01 | 54 | 1019.9 |
| 20260901170411 | 78 | 192 | 0.0 | 4.0 | 0.00 | 0.01 | 0.01 | 50 | 1019.9 |
| 20260901164910 | 80 | 144 | 2.0 | 3.0 | 0.00 | 0.01 | 0.01 | 47 | 1019.9 |
| 20260901163410 | 82 | 128 | 1.0 | 2.0 | 0.00 | 0.01 | 0.01 | 43 | 1019.9 |
| 20260901161910 | 81 | 175 | 0.0 | 3.0 | 0.00 | 0.01 | 0.01 | 45 | 1020.1 |
| 20260901160410 | 81 | 153 | 2.0 | 4.0 | 0.00 | 0.01 | 0.01 | 43 | 1020.1 |
| 20260901154912 | 82 | 152 | 2.0 | 5.0 | 0.00 | 0.01 | 0.01 | 42 | 1020.2 |
| 20260901153411 | 81 | 143 | 1.0 | 5.0 | 0.00 | 0.01 | 0.01 | 44 | 1020.3 |
| 20260901151911 | 82 | 155 | 2.0 | 6.0 | 0.00 | 0.01 | 0.01 | 43 | 1020.4 |
| 20260901150411 | 83 | 150 | 0.0 | 4.0 | 0.00 | 0.01 | 0.01 | 46 | 1020.4 |
| 20260901144911 | 83 | 153 | 0.0 | 3.0 | 0.00 | 0.01 | 0.01 | 44 | 1020.5 |
| 20260901143411 | 83 | 158 | 1.0 | 4.0 | 0.00 | 0.01 | 0.01 | 45 | 1020.6 |
| 20260901141911 | 84 | 184 | 3.0 | 5.0 | 0.00 | 0.01 | 0.01 | 40 | 1020.6 |
| 20260901140411 | 83 | 264 | 2.0 | 5.0 | 0.00 | 0.01 | 0.01 | 45 | 1020.6 |
| 20260901133411 | 82 | 44 | 4.0 | 8.0 | 0.00 | 0.01 | 0.01 | 48 | 1020.8 |
| 20260901131910 | 82 | 351 | 5.0 | 13.0 | 0.00 | 0.01 | 0.01 | 49 | 1021.0 |
| 20260901130410 | 81 | 73 | 0.0 | 4.0 | 0.00 | 0.01 | 0.01 | 50 | 1021.1 |
| 20260901124910 | 81 | 76 | 0.0 | 4.0 | 0.00 | 0.01 | 0.01 | 51 | 1021.3 |
| 20260901123410 | 80 | 39 | 3.0 | 5.0 | 0.00 | 0.01 | 0.01 | 53 | 1021.5 |
| 20260901121910 | 79 | 5 | 2.0 | 4.0 | 0.00 | 0.01 | 0.01 | 56 | 1021.6 |
| 20260901120410 | 78 | 43 | 5.0 | 6.0 | 0.00 | 0.01 | 0.01 | 59 | 1021.8 |
| 20260901114911 | 78 | 66 | 3.0 | 7.0 | 0.00 | 0.01 | 0.01 | 57 | 1021.9 |
| 20260901113411 | 77 | 67 | 3.0 | 6.0 | 0.00 | 0.01 | 0.01 | 58 | 1022.0 |
| 20260901111911 | 77 | 95 | 2.0 | 9.0 | 0.00 | 0.01 | 0.01 | 58 | 1022.1 |
| 20260901110411 | 78 | 52 | 3.0 | 5.0 | 0.00 | 0.01 | 0.01 | 57 | 1022.3 |